Overview Statistics Trail Chart Weather Telemetry Raw packets
 

This is the latest recevied weather packets stored in our database for station/object SV9TNF-57. If no packets are shown the sender has not sent any weather packets the latest 10 day(s).

<< 45 46 47 48 49 50 51 >>
Time Temp. Humidity Pressure Rain* Wind** Luminosity Snow
1788355425 31.67° C 41% 994.8 hPa 0 mm 4.02 m/s, 331° - -
1788355125 31.67° C 41% 994.8 hPa 0 mm 2.24 m/s, 298° - -
1788354825 31.67° C 40% 994.6 hPa 0 mm 6.26 m/s, 358° - -
1788354525 32.22° C 37% 994.6 hPa 0 mm 8.49 m/s, 15° - -
1788354225 32.22° C 37% 994.9 hPa 0 mm 0.45 m/s, 219° - -
1788353924 32.78° C 35% 994.7 hPa 0 mm 4.02 m/s, 41° - -
1788353625 32.78° C 35% 994.5 hPa 0 mm 2.68 m/s, 343° - -
1788353325 32.78° C 34% 994.7 hPa 0 mm 0.89 m/s, 260° - -
1788353025 32.78° C 34% 994.7 hPa 0 mm 7.15 m/s, 301° - -
1788352724 32.78° C 33% 994.6 hPa 0 mm 2.68 m/s, 29° - -
1788352424 32.22° C 33% 994.7 hPa 0 mm 3.58 m/s, 354° - -
1788352124 32.78° C 33% 994.9 hPa 0 mm 17.43 m/s, 352° - -
1788351824 32.78° C 33% 994.9 hPa 0 mm 9.83 m/s, 286° - -
1788351524 32.78° C 33% 994.8 hPa 0 mm 4.02 m/s, 336° - -
1788351224 32.78° C 33% 994.8 hPa 0 mm 5.36 m/s, 15° - -
1788350924 33.33° C 33% 995 hPa 0 mm 4.92 m/s, 308° - -
1788350623 33.33° C 33% 994.9 hPa 0 mm 5.36 m/s, 336° - -
1788350324 32.78° C 32% 994.8 hPa 0 mm 8.49 m/s, 349° - -
1788350023 32.78° C 32% 994.9 hPa 0 mm 16.99 m/s, 345° - -
1788349723 32.78° C 32% 994.9 hPa 0 mm 5.36 m/s, 358° - -
1788349423 32.78° C 31% 994.7 hPa 0 mm 1.79 m/s, 148° - -
1788349123 32.78° C 32% 994.9 hPa 0 mm 11.62 m/s, 232° - -
1788348823 32.78° C 32% 994.9 hPa 0 mm 8.05 m/s, 321° - -
1788348523 32.78° C 32% 994.7 hPa 0 mm 6.71 m/s, 21° - -
1788348223 32.78° C 32% 994.8 hPa 0 mm 12.07 m/s, 17° - -

* Rain latest hour (hover to see other rain measurements)
** Current wind speed in m/s (hover to see current wind gust speed)